User: anonymous   Login
Location: Bazugues
(43.4465°N, 0.3432°E)
Time: 14:04:31
(UTC+00:00)
Language:

DNEPR-1 R/B - Orbit

View from above orbital plane
View from above orbital plane
View from above satellite
View from above satellite

Ground track
Ground track

The orbit is defined by the following mean orbital elements,

1 26550U          26066.80128264 +.00000000 +00000-0 +63786-4 0 00006
2 26550  64.5619 226.6907 0506618  54.9648 309.7863 13.82061852    07
Epoch (UTC): 07 March 2026 19:13:50
Eccentricity: 0.0506618
inclination: 64.5619°
perigee height: 585 km
apogee height: 1328 km
right ascension of ascending node: 226.6907°
argument of perigee: 54.9648°
revolutions per day: 13.82061852
mean anomaly at epoch: 309.7863°

The dashed part of the orbit path shows where the satellite is in the earth's shadow,  

DLR